This is the latest recevied weather packets stored in our database for station/object W1BKW. If no packets are shown the sender has not sent any weather packets the latest 10 day(s).
| Time | Temp. | Humidity | Pressure | Rain* | Wind** | Luminosity | Snow |
|---|---|---|---|---|---|---|---|
| 1777834521 | 9.44° C | 55% | 1002.9 hPa | 0 mm | - | 186 W/m² | - |
| 1777833619 | 10° C | 59% | 1002.9 hPa | 0 mm | - | 230 W/m² | - |
| 1777832717 | 9.44° C | 59% | 1002.8 hPa | 0 mm | - | 219 W/m² | - |
| 1777831814 | 9.44° C | 61% | 1003 hPa | 0 mm | - | 163 W/m² | - |
| 1777830912 | 9.44° C | 59% | 1002.9 hPa | 0 mm | - | 224 W/m² | - |
| 1777830008 | 8.89° C | 60% | 1002.9 hPa | 0 mm | - | 170 W/m² | - |
| 1777829103 | 8.89° C | 61% | 1003 hPa | 0 mm | - | 161 W/m² | - |
| 1777828200 | 8.33° C | 65% | 1003.1 hPa | 0 mm | - | 202 W/m² | - |
| 1777827297 | 8.89° C | 65% | 1003.1 hPa | 0 mm | - | 233 W/m² | - |
| 1777826392 | 8.33° C | 67% | 1003.3 hPa | 0 mm | - | 212 W/m² | - |
| 1777825490 | 7.78° C | 72% | 1003.6 hPa | 0 mm | - | 147 W/m² | - |
| 1777824586 | 7.78° C | 74% | 1003.6 hPa | 0 mm | - | 161 W/m² | - |
| 1777823682 | 7.78° C | 75% | 1004.2 hPa | 0 mm | - | 131 W/m² | - |
| 1777822780 | 7.22° C | 77% | 1003.8 hPa | 0 mm | - | 127 W/m² | - |
| 1777821878 | 7.22° C | 81% | 1004.1 hPa | 0 mm | - | 320 W/m² | - |
| 1777820976 | 6.67° C | 85% | 1004.4 hPa | 0 mm | - | 193 W/m² | - |
| 1777820072 | 6.67° C | 88% | 1004.3 hPa | 0 mm | - | 137 W/m² | - |
| 1777819171 | 6.11° C | 87% | 1004.6 hPa | 0 mm | - | 106 W/m² | - |
| 1777818267 | 6.11° C | 88% | 1004.8 hPa | 0 mm | - | 68 W/m² | - |
| 1777817363 | 5.56° C | 89% | 1004.8 hPa | 0 mm | - | 45 W/m² | - |
| 1777816460 | 5.56° C | 91% | 1005 hPa | 0 mm | - | 31 W/m² | - |
| 1777815558 | 5.56° C | 90% | 1005.3 hPa | 0 mm | - | 28 W/m² | - |
| 1777814654 | 5.56° C | 90% | 1005.3 hPa | 0 mm | - | 41 W/m² | - |
| 1777813750 | 5.56° C | 94% | 1005.5 hPa | 0 mm | - | 37 W/m² | - |
| 1777812848 | 5.56° C | 93% | 1005.6 hPa | 0 mm | - | 36 W/m² | - |
* Rain latest hour (hover to see other rain measurements)
** Current wind speed in m/s (hover to see current wind gust speed)